DW7314 Weather Reports


Display with metric or nautical units.
time (UTC)temp
F
wind
direction
speed
MPH
gust
MPH
rain 1hr
in
rain 24hr
in
rain mn
in
humidity
%
barometer
mb
20260504213043 82 133 0.0 4.0 0.00 0.00 0.00 40 1014.3
20260504212053 82 133 0.0 1.0 0.00 0.00 0.00 43 1014.1
20260504211107 81 133 0.0 1.0 0.00 0.00 0.00 40 1014.3
20260504210109 82 133 0.0 2.0 0.00 0.00 0.00 45 1014.5
20260504205052 82 132 0.0 1.0 0.00 0.00 0.00 43 1014.6
20260504204050 82 134 0.0 1.0 0.00 0.00 0.00 47 1014.7
20260504203043 82 134 0.0 1.0 0.00 0.00 0.00 44 1014.8
20260504202037 82 134 0.0 2.0 0.00 0.00 0.00 45 1014.9
20260504201048 81 37 0.0 1.0 0.00 0.00 0.00 42 1015.1
20260504200134 82 37 1.0 2.0 0.00 0.00 0.00 44 1015.2
20260504195058 82 118 0.0 4.0 0.00 0.00 0.00 41 1015.3
20260504194053 82 139 0.0 1.0 0.00 0.00 0.00 44 1015.6
20260504193046 82 139 0.0 4.0 0.00 0.00 0.00 43 1015.8
20260504192040 82 139 0.0 2.0 0.00 0.00 0.00 43 1015.9
20260504191052 81 122 0.0 2.0 0.00 0.00 0.00 45 1016.1
20260504190120 81 100 0.0 5.0 0.00 0.00 0.00 45 1016.2
20260504185100 81 119 0.0 2.0 0.00 0.00 0.00 44 1016.4
20260504184053 80 144 0.0 1.0 0.00 0.00 0.00 46 1016.4
20260504183046 80 144 0.0 4.0 0.00 0.00 0.00 45 1016.6
20260504182041 80 155 0.0 1.0 0.00 0.00 0.00 43 1016.6
20260504181053 80 169 0.0 1.0 0.00 0.00 0.00 41 1016.8
20260504180137 79 169 0.0 1.0 0.00 0.00 0.00 45 1016.8
20260504175058 79 169 0.0 0.0 0.00 0.00 0.00 43 1017.1
20260504174049 78 169 0.0 0.0 0.00 0.00 0.00 45 1017.2
20260504173044 78 169 0.0 0.0 0.00 0.00 0.00 45 1017.2
20260504172043 78 185 0.0 2.0 0.00 0.00 0.00 47 1017.5
20260504171058 77 138 0.0 1.0 0.00 0.00 0.00 47 1017.5
20260504031041 57 286 0.0 0.0 0.00 0.00 0.00 81 1018.7
20260504030124 58 286 0.0 0.0 0.00 0.00 0.00 82 1018.7
20260504025049 58 286 0.0 0.0 0.00 0.00 0.00 80 1018.7
20260504024042 58 286 0.0 0.0 0.00 0.00 0.00 78 1018.7
20260504023053 59 286 0.0 0.0 0.00 0.00 0.00 77 1018.5
20260504022049 59 286 0.0 0.0 0.00 0.00 0.00 76 1018.3
20260504021041 60 286 0.0 0.0 0.00 0.00 0.00 76 1018.2
20260504020126 61 286 0.0 0.0 0.00 0.00 0.00 73 1018.1
20260504015053 62 286 0.0 0.0 0.00 0.00 0.00 72 1017.9
20260504014106 63 286 0.0 0.0 0.00 0.00 0.00 72 1017.9
20260504013058 63 286 0.0 0.0 0.00 0.00 0.00 68 1017.7
20260504012052 64 286 0.0 0.0 0.00 0.00 0.00 67 1017.6
20260504011045 65 286 0.0 0.0 0.00 0.00 0.00 67 1017.6
20260504010109 66 286 0.0 0.0 0.00 0.00 0.00 59 1017.5
20260504005112 66 286 0.0 0.0 0.00 0.00 0.00 56 1017.4
20260504004045 67 286 0.0 0.0 0.00 0.00 0.00 55 1017.4
20260504003038 68 286 0.0 0.0 0.00 0.00 0.00 55 1017.3
20260504002052 69 287 0.0 0.0 0.00 0.00 0.00 54 1017.1
20260504001048 69 287 0.0 0.0 0.00 0.00 0.00 53 1017.1
20260504000111 70 287 0.0 0.0 0.00 0.00 0.00 52 1017.0
20260503235053 71 287 0.0 0.0 0.00 0.00 0.00 51 1016.9
20260503234046 72 287 0.0 0.0 0.00 0.00 0.00 50 1016.9
20260503233039 72 287 0.0 0.0 0.00 0.00 0.00 47 1016.8
20260503232051 72 287 0.0 0.0 0.00 0.00 0.00 47 1016.8
20260503231044 73 287 0.0 0.0 0.00 0.00 0.00 47 1016.9
20260503230107 73 287 0.0 0.0 0.00 0.00 0.00 48 1016.9
20260503225052 73 287 0.0 0.0 0.00 0.00 0.00 47 1016.8
20260503224048 73 167 0.0 0.0 0.00 0.00 0.00 48 1016.9
20260503223043 74 167 0.0 0.0 0.00 0.00 0.00 48 1017.0
20260503222055 74 167 0.0 0.0 0.00 0.00 0.00 47 1017.0
20260503221050 75 167 0.0 0.0 0.00 0.00 0.00 46 1017.0
20260503220134 75 167 0.0 1.0 0.00 0.00 0.00 48 1017.0
20260503215057 75 167 0.0 1.0 0.00 0.00 0.00 47 1017.1
20260503214049 75 167 0.0 1.0 0.00 0.00 0.00 48 1017.3